Time,TemperatureF,DewpointF,PressureIn,WindDirection,WindDirectionDegrees,WindSpeedMPH,WindSpeedGustMPH,Humidity,HourlyPrecipIn,Conditions,Clouds,dailyrainin,SoftwareType,DateUTC
2013-08-09 00:02:00,67.7,62.0,29.95,SSW,209,0.0,0.0,81,0.00,,,0.00,weatherlink.com 1.10,2013-08-09 05:02:00,
2013-08-09 00:17:00,66.6,61.0,29.96,SSW,209,0.0,0.0,83,0.00,,,0.00,weatherlink.com 1.10,2013-08-09 05:17:00,
2013-08-09 00:32:00,67.3,61.0,29.96,SSW,209,0.0,0.0,80,0.00,,,0.00,weatherlink.com 1.10,2013-08-09 05:32:00,
2013-08-09 00:47:00,67.5,61.0,29.96,SSW,209,0.0,0.0,80,0.00,,,0.00,weatherlink.com 1.10,2013-08-09 05:47:00,
2013-08-09 01:02:00,66.5,61.0,29.95,SSE,165,0.0,0.0,83,0.00,,,0.00,weatherlink.com 1.10,2013-08-09 06:02:00,
2013-08-09 01:17:00,66.0,61.0,29.96,SSE,165,0.0,0.0,84,0.00,,,0.00,weatherlink.com 1.10,2013-08-09 06:17:00,
2013-08-09 01:32:00,65.9,61.0,29.96,SSE,165,0.0,0.0,84,0.00,,,0.00,weatherlink.com 1.10,2013-08-09 06:32:00,
2013-08-09 01:47:00,65.6,61.0,29.96,SSE,165,0.0,0.0,85,0.00,,,0.00,weatherlink.com 1.10,2013-08-09 06:47:00,
2013-08-09 02:02:00,65.6,61.0,29.96,SSW,200,0.0,0.0,86,0.00,,,0.00,weatherlink.com 1.10,2013-08-09 07:02:00,
2013-08-09 02:17:00,65.3,61.0,29.96,SSW,207,0.0,0.0,86,0.00,,,0.00,weatherlink.com 1.10,2013-08-09 07:17:00,
2013-08-09 02:32:00,65.0,61.0,29.96,SSW,207,0.0,0.0,87,0.00,,,0.00,weatherlink.com 1.10,2013-08-09 07:32:00,
2013-08-09 02:47:00,64.9,61.0,29.96,SSW,194,0.0,0.0,87,0.00,,,0.00,weatherlink.com 1.10,2013-08-09 07:47:00,
2013-08-09 03:02:00,64.7,61.0,29.96,SSW,206,0.0,0.0,87,0.00,,,0.00,weatherlink.com 1.10,2013-08-09 08:02:00,
2013-08-09 03:17:00,64.6,61.0,29.96,SSW,204,0.0,0.0,88,0.00,,,0.00,weatherlink.com 1.10,2013-08-09 08:17:00,
2013-08-09 03:32:00,64.7,62.0,29.96,SSW,204,0.0,0.0,89,0.00,,,0.00,weatherlink.com 1.10,2013-08-09 08:32:00,
2013-08-09 03:47:00,65.2,62.0,29.96,SSW,209,0.0,0.0,89,0.00,,,0.00,weatherlink.com 1.10,2013-08-09 08:47:00,
2013-08-09 04:02:00,65.5,63.0,29.95,SW,236,0.0,0.0,90,0.00,,,0.00,weatherlink.com 1.10,2013-08-09 09:02:00,
2013-08-09 04:17:00,65.4,63.0,29.96,WSW,246,0.0,0.0,90,0.00,,,0.00,weatherlink.com 1.10,2013-08-09 09:17:00,
2013-08-09 04:32:00,65.5,63.0,29.96,West,281,0.0,0.0,91,0.00,,,0.00,weatherlink.com 1.10,2013-08-09 09:32:00,
2013-08-09 04:47:00,65.4,63.0,29.96,NNW,329,0.0,0.0,91,0.00,,,0.00,weatherlink.com 1.10,2013-08-09 09:47:00,
2013-08-09 05:02:00,65.1,63.0,29.96,North,355,0.0,0.0,92,0.00,,,0.00,weatherlink.com 1.10,2013-08-09 10:02:00,
2013-08-09 05:17:00,64.8,63.0,29.97,North,360,0.0,0.0,92,0.00,,,0.00,weatherlink.com 1.10,2013-08-09 10:17:00,
2013-08-09 05:32:00,64.6,63.0,29.97,North,360,0.0,0.0,93,0.00,,,0.00,weatherlink.com 1.10,2013-08-09 10:32:00,
2013-08-09 05:47:00,64.5,63.0,29.98,North,350,0.0,0.0,93,0.00,,,0.00,weatherlink.com 1.10,2013-08-09 10:47:00,
2013-08-09 06:02:00,64.3,62.0,29.98,NNW,344,0.0,0.0,93,0.00,,,0.00,weatherlink.com 1.10,2013-08-09 11:02:00,
2013-08-09 06:17:00,64.2,62.0,29.99,North,355,0.0,0.0,92,0.00,,,0.00,weatherlink.com 1.10,2013-08-09 11:17:00,
2013-08-09 06:32:00,63.7,61.0,29.98,North,355,0.0,0.0,92,0.00,,,0.00,weatherlink.com 1.10,2013-08-09 11:32:00,
2013-08-09 06:47:00,63.2,61.0,29.99,NNE,19,0.0,0.0,92,0.00,,,0.00,weatherlink.com 1.10,2013-08-09 11:47:00,
2013-08-09 07:02:00,63.0,61.0,29.99,North,360,0.0,0.0,92,0.00,,,0.00,weatherlink.com 1.10,2013-08-09 12:02:00,
2013-08-09 07:17:00,63.4,61.0,30.00,NW,325,0.0,0.0,91,0.00,,,0.00,weatherlink.com 1.10,2013-08-09 12:17:00,
2013-08-09 07:32:00,63.5,61.0,30.00,NNW,342,0.0,0.0,90,0.00,,,0.00,weatherlink.com 1.10,2013-08-09 12:32:00,
2013-08-09 07:47:00,63.5,61.0,30.00,NNW,348,0.0,0.0,90,0.00,,,0.00,weatherlink.com 1.10,2013-08-09 12:47:00,
2013-08-09 08:02:00,63.9,61.0,30.01,NNW,336,0.0,0.0,89,0.00,,,0.00,weatherlink.com 1.10,2013-08-09 13:02:00,
2013-08-09 08:18:00,64.8,61.0,30.01,North,360,0.0,0.0,88,0.00,,,0.00,weatherlink.com 1.10,2013-08-09 13:18:00,
2013-08-09 08:33:00,65.7,62.0,30.02,NW,326,0.0,0.0,86,0.00,,,0.00,weatherlink.com 1.10,2013-08-09 13:33:00,
2013-08-09 08:48:00,66.6,62.0,30.02,NNW,348,0.0,0.0,85,0.00,,,0.00,weatherlink.com 1.10,2013-08-09 13:48:00,
2013-08-09 09:03:00,67.9,63.0,30.02,NNE,16,0.0,0.0,83,0.00,,,0.00,weatherlink.com 1.10,2013-08-09 14:03:00,
2013-08-09 09:18:00,68.5,63.0,30.02,NNW,330,0.0,0.0,82,0.00,,,0.00,weatherlink.com 1.10,2013-08-09 14:18:00,
2013-08-09 09:33:00,69.2,63.0,30.02,NW,326,0.0,0.0,80,0.00,,,0.00,weatherlink.com 1.10,2013-08-09 14:33:00,
2013-08-09 09:48:00,70.5,63.0,30.02,NNW,344,0.0,0.0,76,0.00,,,0.00,weatherlink.com 1.10,2013-08-09 14:48:00,
2013-08-09 10:03:00,71.9,62.0,30.02,NNE,25,0.0,0.0,71,0.00,,,0.00,weatherlink.com 1.10,2013-08-09 15:03:00,
2013-08-09 10:18:00,72.1,61.0,30.02,NNE,19,0.0,0.0,68,0.00,,,0.00,weatherlink.com 1.10,2013-08-09 15:18:00,
2013-08-09 10:33:00,72.8,60.0,30.02,North,11,0.0,0.0,64,0.00,,,0.00,weatherlink.com 1.10,2013-08-09 15:33:00,
2013-08-09 10:48:00,73.2,57.0,30.02,North,360,0.0,0.0,58,0.00,,,0.00,weatherlink.com 1.10,2013-08-09 15:48:00,
2013-08-09 11:03:00,74.0,58.0,30.02,North,11,0.0,0.0,57,0.00,,,0.00,weatherlink.com 1.10,2013-08-09 16:03:00,
2013-08-09 11:18:00,74.3,57.0,30.03,NE,47,0.0,0.0,56,0.00,,,0.00,weatherlink.com 1.10,2013-08-09 16:18:00,
2013-08-09 11:33:00,74.9,58.0,30.02,NNW,327,0.0,0.0,55,0.00,,,0.00,weatherlink.com 1.10,2013-08-09 16:33:00,
2013-08-09 11:48:00,76.2,56.0,30.03,North,9,0.0,0.0,50,0.00,,,0.00,weatherlink.com 1.10,2013-08-09 16:48:00,
2013-08-09 12:03:00,75.5,55.0,30.03,North,351,0.0,0.0,49,0.00,,,0.00,weatherlink.com 1.10,2013-08-09 17:03:00,
2013-08-09 12:18:00,76.4,55.0,30.02,NNW,337,0.0,0.0,47,0.00,,,0.00,weatherlink.com 1.10,2013-08-09 17:18:00,
2013-08-09 12:33:00,75.6,55.0,30.02,NNW,334,0.0,0.0,49,0.00,,,0.00,weatherlink.com 1.10,2013-08-09 17:33:00,
2013-08-09 12:48:00,76.3,56.0,30.02,North,9,0.0,0.0,49,0.00,,,0.00,weatherlink.com 1.10,2013-08-09 17:48:00,
2013-08-09 13:03:00,76.2,55.0,30.03,North,11,0.0,0.0,48,0.00,,,0.00,weatherlink.com 1.10,2013-08-09 18:03:00,
2013-08-09 13:18:00,76.2,56.0,30.03,NNW,336,0.0,0.0,49,0.00,,,0.00,weatherlink.com 1.10,2013-08-09 18:18:00,
2013-08-09 13:33:00,76.3,56.0,30.03,North,355,0.0,0.0,49,0.00,,,0.00,weatherlink.com 1.10,2013-08-09 18:33:00,
2013-08-09 13:48:00,77.1,56.0,30.02,North,350,0.0,0.0,48,0.00,,,0.00,weatherlink.com 1.10,2013-08-09 18:48:00,
2013-08-09 14:03:00,77.4,56.0,30.02,North,350,0.0,0.0,47,0.00,,,0.00,weatherlink.com 1.10,2013-08-09 19:03:00,
2013-08-09 14:18:00,77.6,55.0,30.02,NNW,344,0.0,0.0,46,0.00,,,0.00,weatherlink.com 1.10,2013-08-09 19:18:00,
2013-08-09 14:33:00,77.3,55.0,30.03,NW,323,0.0,0.0,47,0.00,,,0.00,weatherlink.com 1.10,2013-08-09 19:33:00,
2013-08-09 14:48:00,78.0,57.0,30.03,NW,326,0.0,0.0,48,0.00,,,0.00,weatherlink.com 1.10,2013-08-09 19:48:00,
2013-08-09 15:04:00,77.4,57.0,30.02,WNW,296,0.0,0.0,49,0.00,,,0.00,weatherlink.com 1.10,2013-08-09 20:04:00,
2013-08-09 15:18:00,77.1,56.0,30.02,NNW,339,0.0,0.0,48,0.00,,,0.00,weatherlink.com 1.10,2013-08-09 20:18:00,
2013-08-09 15:33:00,77.6,57.0,30.03,North,5,0.0,0.0,49,0.00,,,0.00,weatherlink.com 1.10,2013-08-09 20:33:00,
2013-08-09 15:48:00,76.9,57.0,30.03,NW,310,0.0,0.0,50,0.00,,,0.00,weatherlink.com 1.10,2013-08-09 20:48:00,
2013-08-09 16:03:00,77.1,57.0,30.03,North,5,0.0,0.0,50,0.00,,,0.00,weatherlink.com 1.10,2013-08-09 21:03:00,
2013-08-09 16:18:00,77.0,57.0,30.03,North,351,0.0,0.0,50,0.00,,,0.00,weatherlink.com 1.10,2013-08-09 21:18:00,
2013-08-09 16:33:00,76.9,57.0,30.02,NNE,15,0.0,0.0,51,0.00,,,0.00,weatherlink.com 1.10,2013-08-09 21:33:00,
2013-08-09 16:48:00,77.1,57.0,30.02,North,355,0.0,0.0,50,0.00,,,0.00,weatherlink.com 1.10,2013-08-09 21:48:00,
2013-08-09 17:03:00,77.0,57.0,30.03,North,360,0.0,0.0,51,0.00,,,0.00,weatherlink.com 1.10,2013-08-09 22:03:00,
2013-08-09 17:18:00,77.0,58.0,30.03,WNW,298,0.0,0.0,52,0.00,,,0.00,weatherlink.com 1.10,2013-08-09 22:18:00,
2013-08-09 17:34:00,77.0,57.0,30.02,NNW,336,0.0,0.0,51,0.00,,,0.00,weatherlink.com 1.10,2013-08-09 22:34:00,
2013-08-09 17:48:00,77.4,57.0,30.02,NNW,347,0.0,0.0,50,0.00,,,0.00,weatherlink.com 1.10,2013-08-09 22:48:00,
2013-08-09 18:03:00,77.0,57.0,30.03,WNW,290,0.0,0.0,51,0.00,,,0.00,weatherlink.com 1.10,2013-08-09 23:03:00,
2013-08-09 18:18:00,76.8,58.0,30.02,NW,317,0.0,0.0,52,0.00,,,0.00,weatherlink.com 1.10,2013-08-09 23:18:00,
2013-08-09 18:33:00,76.6,58.0,30.02,NW,320,0.0,0.0,52,0.00,,,0.00,weatherlink.com 1.10,2013-08-09 23:33:00,
2013-08-09 18:48:00,76.6,58.0,30.02,NW,325,0.0,0.0,52,0.00,,,0.00,weatherlink.com 1.10,2013-08-09 23:48:00,
2013-08-09 19:03:00,76.5,59.0,30.02,North,355,0.0,0.0,54,0.00,,,0.00,weatherlink.com 1.10,2013-08-10 00:03:00,
2013-08-09 19:18:00,75.8,58.0,30.03,NNW,328,0.0,0.0,55,0.00,,,0.00,weatherlink.com 1.10,2013-08-10 00:18:00,
2013-08-09 19:33:00,75.4,58.0,30.03,North,355,0.0,0.0,56,0.00,,,0.00,weatherlink.com 1.10,2013-08-10 00:33:00,
2013-08-09 19:48:00,74.7,58.0,30.03,North,9,0.0,0.0,57,0.00,,,0.00,weatherlink.com 1.10,2013-08-10 00:48:00,
2013-08-09 20:04:00,73.7,58.0,30.03,North,5,0.0,0.0,59,0.00,,,0.00,weatherlink.com 1.10,2013-08-10 01:04:00,
2013-08-09 20:19:00,72.7,59.0,30.03,North,5,0.0,0.0,62,0.00,,,0.00,weatherlink.com 1.10,2013-08-10 01:19:00,
2013-08-09 20:34:00,71.7,59.0,30.04,NNE,13,0.0,0.0,64,0.00,,,0.00,weatherlink.com 1.10,2013-08-10 01:34:00,
2013-08-09 20:49:00,70.6,59.0,30.04,NNE,17,0.0,0.0,67,0.00,,,0.00,weatherlink.com 1.10,2013-08-10 01:49:00,
2013-08-09 21:04:00,69.7,59.0,30.05,North,11,0.0,0.0,68,0.00,,,0.00,weatherlink.com 1.10,2013-08-10 02:04:00,
2013-08-09 21:19:00,68.9,59.0,30.06,NNE,22,0.0,0.0,71,0.00,,,0.00,weatherlink.com 1.10,2013-08-10 02:19:00,
2013-08-09 21:34:00,68.1,59.0,30.06,NNE,28,0.0,0.0,73,0.00,,,0.00,weatherlink.com 1.10,2013-08-10 02:34:00,
2013-08-09 21:49:00,67.6,58.0,30.07,North,5,0.0,0.0,72,0.00,,,0.00,weatherlink.com 1.10,2013-08-10 02:49:00,
2013-08-09 22:04:00,67.1,57.0,30.07,NNE,12,0.0,0.0,71,0.00,,,0.00,weatherlink.com 1.10,2013-08-10 03:04:00,
2013-08-09 22:19:00,66.5,57.0,30.07,North,360,0.0,0.0,72,0.00,,,0.00,weatherlink.com 1.10,2013-08-10 03:19:00,
2013-08-09 22:34:00,66.1,57.0,30.08,NNE,13,0.0,0.0,73,0.00,,,0.00,weatherlink.com 1.10,2013-08-10 03:34:00,
2013-08-09 22:49:00,65.7,57.0,30.08,NNE,17,0.0,0.0,74,0.00,,,0.00,weatherlink.com 1.10,2013-08-10 03:49:00,
2013-08-09 23:04:00,65.4,57.0,30.08,North,5,0.0,0.0,74,0.00,,,0.00,weatherlink.com 1.10,2013-08-10 04:04:00,
2013-08-09 23:19:00,65.1,57.0,30.09,North,11,0.0,0.0,75,0.00,,,0.00,weatherlink.com 1.10,2013-08-10 04:19:00,
2013-08-09 23:34:00,64.9,57.0,30.09,NNE,15,0.0,0.0,76,0.00,,,0.00,weatherlink.com 1.10,2013-08-10 04:34:00,
2013-08-09 23:49:00,64.5,57.0,30.09,NNE,15,0.0,0.0,76,0.00,,,0.00,weatherlink.com 1.10,2013-08-10 04:49:00,